Total_Precipitation_Accumulation
4.05 3.30 2.94 2.35 1.67 1.28 1.18 1.56 1.58 1.41 1.14 0.96 1.10 0.99 1.04 1.03 1.03 1.16 1.27 1.30 1.34 1.25
4.02 3.25 2.97 2.93 2.75 1.53 1.05 1.05 1.34 1.12 0.90 0.71 0.61 0.67 0.72 0.71 0.81 0.94 1.01 0.98 0.93 0.89
3.75 3.99 3.56 2.95 2.78 2.38 1.58 1.28 1.18 1.17 0.75 0.46 0.40 0.39 0.45 0.47 0.39 0.52 0.68 0.81 0.90 0.88
2.19 3.17 3.33 3.65 2.97 2.75 2.19 1.71 1.70 1.64 1.56 1.01 0.51 0.31 0.31 0.33 0.35 0.39 0.41 0.52 0.69 0.72
0.93 1.75 1.90 2.50 2.84 2.84 2.50 2.11 1.56 1.56 1.61 1.48 1.25 0.78 0.52 0.36 0.34 0.32 0.31 0.34 0.50 0.50
0.70 0.91 1.03 1.48 1.85 2.15 2.49 2.13 1.68 1.49 1.77 1.58 1.53 1.43 1.09 0.81 0.68 0.58 0.48 0.46 0.48 0.43
0.94 1.17 0.90 0.86 1.25 1.38 1.94 2.41 1.92 1.70 1.19 1.09 1.15 1.29 1.39 1.27 1.10 0.92 0.76 0.63 0.56 0.56
1.17 0.93 1.09 1.18 1.32 1.65 1.69 2.07 2.10 2.01 1.71 1.30 1.20 1.25 1.11 1.10 1.19 1.14 1.06 0.97 0.94 0.82
1.43 1.10 0.79 0.94 1.08 1.53 1.87 2.01 2.85 2.45 2.57 2.12 1.73 1.79 1.60 1.43 1.36 1.45 1.47 1.31 1.10 1.03
1.89 1.52 1.20 1.01 1.15 1.28 1.75 2.04 2.75 3.10 2.89 2.96 2.87 2.98 2.42 2.20 1.91 2.03 2.02 1.77 1.65 1.47
2.21 2.32 2.64 2.06 1.95 2.20 2.34 2.59 2.78 3.23 3.31 2.47 2.47 2.62 2.27 2.02 1.63 1.48 1.46 1.48 1.42 1.47
1.41 1.78 2.01 2.12 2.56 2.63 2.78 3.07 3.14 2.92 2.78 2.24 2.08 2.06 1.78 1.98 1.89 1.75 1.60 1.45 1.38 1.46
1.11 1.11 1.02 0.89 1.27 1.40 1.25 1.29 1.48 1.75 1.80 1.80 1.47 1.59 1.34 1.07 1.17 1.36 1.32 1.47 1.30 1.61
0.66 0.75 0.81 0.78 0.69 0.72 0.77 0.70 0.73 0.76 0.72 0.65 0.64 0.73 0.93 0.85 0.66 0.60 0.72 0.77 0.78 0.83